sat.trackr.live / text

‹ back to catalog

KINEIS-3E

NORAD 61222 · 2024-172C

PAYLOAD ACTIVE UNKNOWN

§ Identity

Operator
Country
FR
Launch date
2024-09-20
Launch site
RLLB
Launch vehicle
Mass (kg)
RCS (m²)

External: N2YO · Heavens-Above · Gunter

§ Orbital elements

Epoch: 2026-05-25T03:29:47.881248Z

Period
97.81 min
Inclination
98.0416°
Eccentricity
0.0001387
Mean motion
14.72286914 rev/d
Perigee alt
652.8 km
Apogee alt
654.8 km
Semi-major
7,031.9 km
B*
2.7365e-4
RAAN
235.2842°
Arg perigee
124.1860°
Mean anomaly
235.9479°
Rev number
8,996

§ Raw data

KINEIS-3E1 61222U 24172C   26145.14569307  .00001679  00000+0  27365-3 0  99902 61222  98.0416 235.2842 0001387 124.1860 235.9479 14.72286914 89965

JSON: /api/v1/satellites/61222 · /tle

For live sub-satellite position, see the globe view (requires WebGL).

§ Visibility from observer

Set your observer location to see the next 7 days of passes ≥ 10°. The values pass through the URL so the page stays shareable.

No JS? Fill the form by hand. The geolocation button needs JavaScript.

§ Radio — SatNOGS DB

ModeDescriptionDownlinkUplink
BPSK S-band telemetry 2.265 GHz
FM Telemetry 400.662 MHz

2 transmitters · refreshed weekly from db.satnogs.org